When you browse on this site, cookies collect data to enhance your experience and personalize the content and advertising you see.
Visit our Privacy Policy to learn more. By continuing to use the site, you agree to this use of cookies and data.
  • în România
  • Lista ţărilor
  • Pe 7 zile
  • Temperatura apei
  • Meteo pe hartă
  • Widget-uri
  • user-avatar
    Intrare

    Meteo pe oră la Gurevskie Vyselki

    Astăzi, 17 Octombrie, Joi

    Timp Temperatura Precipitaţii Vânt Presiune Umiditate
    00:00 +5°C° 0 mm 6 m/s 746 mmHg 74%
    01:00 +7°C° 0 mm 6 m/s 746 mmHg 77%
    02:00 +7°C° 0 mm 6 m/s 746 mmHg 80%
    03:00 +7°C° 0 mm 6 m/s 746 mmHg 85%
    04:00 +7°C° 0 mm 6 m/s 745 mmHg 87%
    05:00 +7°C° 0 mm 6 m/s 745 mmHg 89%
    06:00 +7°C° 0 mm 6 m/s 745 mmHg 91%
    07:00 +8°C° 0 mm 6 m/s 745 mmHg 90%
    08:00 +8°C° 0 mm 6 m/s 744 mmHg 89%
    09:00 +9°C° 0 mm 6 m/s 744 mmHg 87%
    10:00 +10°C° 0 mm 6 m/s 744 mmHg 82%
    11:00 +13°C° 0 mm 6 m/s 744 mmHg 77%
    12:00 +14°C° 0 mm 7 m/s 744 mmHg 72%
    13:00 +15°C° 0 mm 6 m/s 744 mmHg 71%
    14:00 +15°C° 0 mm 6 m/s 743 mmHg 69%
    15:00 +16°C° 0 mm 6 m/s 743 mmHg 67%
    16:00 +15°C° 0 mm 6 m/s 743 mmHg 72%
    17:00 +14°C° 0 mm 5 m/s 742 mmHg 76%
    18:00 +13°C° 0 mm 5 m/s 742 mmHg 81%
    19:00 +13°C° 0 mm 5 m/s 742 mmHg 81%
    20:00 +12°C° 0 mm 5 m/s 742 mmHg 81%
    21:00 +12°C° 0 mm 5 m/s 742 mmHg 81%
    22:00 +10°C° 0 mm 5 m/s 742 mmHg 83%
    23:00 +11°C° 0 mm 4 m/s 742 mmHg 85%

    Mâine, 18 Octombrie, Vineri

    Timp Temperatura Precipitaţii Vânt Presiune Umiditate
    00:00 +10°C° 0 mm 4 m/s 742 mmHg 86%
    01:00 +10°C° 0 mm 4 m/s 742 mmHg 88%
    02:00 +10°C° 0 mm 4 m/s 742 mmHg 89%
    03:00 +10°C° 0 mm 4 m/s 742 mmHg 91%
    04:00 +8°C° 0 mm 4 m/s 742 mmHg 92%
    05:00 +8°C° 0 mm 4 m/s 742 mmHg 93%
    06:00 +8°C° 0 mm 4 m/s 742 mmHg 94%
    07:00 +8°C° 0 mm 4 m/s 742 mmHg 93%
    08:00 +8°C° 0 mm 4 m/s 742 mmHg 91%
    09:00 +10°C° 0 mm 4 m/s 743 mmHg 90%
    10:00 +11°C° 0 mm 4 m/s 743 mmHg 86%
    11:00 +12°C° 0 mm 4 m/s 743 mmHg 81%
    12:00 +13°C° 0 mm 4 m/s 743 mmHg 77%
    13:00 +13°C° 0 mm 4 m/s 743 mmHg 77%
    14:00 +13°C° 0 mm 4 m/s 743 mmHg 76%
    15:00 +13°C° 0 mm 4 m/s 743 mmHg 76%
    16:00 +12°C° 0 mm 3 m/s 744 mmHg 80%
    17:00 +11°C° 0 mm 3 m/s 744 mmHg 85%
    18:00 +12°C° 0 mm 2 m/s 744 mmHg 90%
    19:00 +10°C° 0 mm 2 m/s 744 mmHg 91%
    20:00 +10°C° 0 mm 2 m/s 744 mmHg 91%
    21:00 +9°C° 0 mm 2 m/s 745 mmHg 92%
    22:00 +9°C° 0 mm 2 m/s 745 mmHg 92%
    23:00 +10°C° 0 mm 1 m/s 745 mmHg 92%

    Poimâine, 19 Octombrie, Sâmbătă

    Timp Temperatura Precipitaţii Vânt Presiune Umiditate
    00:00 +10°C° 0 mm 1 m/s 745 mmHg 92%
    01:00 +10°C° 0 mm 1 m/s 745 mmHg 92%
    02:00 +10°C° 0 mm 1 m/s 745 mmHg 91%
    03:00 +10°C° 0 mm 1 m/s 746 mmHg 91%
    04:00 +10°C° 0 mm 1 m/s 746 mmHg 91%
    05:00 +9°C° 0 mm 1 m/s 746 mmHg 91%
    06:00 +9°C° 0 mm 1 m/s 746 mmHg 91%
    07:00 +10°C° 0 mm 1 m/s 746 mmHg 90%
    08:00 +10°C° 0 mm 1 m/s 746 mmHg 88%
    09:00 +11°C° 0 mm 1 m/s 747 mmHg 87%
    10:00 +12°C° 0 mm 2 m/s 747 mmHg 82%
    11:00 +13°C° 0 mm 2 m/s 747 mmHg 78%
    12:00 +14°C° 0 mm 2 m/s 747 mmHg 73%
    13:00 +14°C° 0 mm 2 m/s 747 mmHg 73%
    14:00 +15°C° 0 mm 2 m/s 747 mmHg 72%
    15:00 +15°C° 0 mm 2 m/s 747 mmHg 72%
    16:00 +14°C° 0 mm 2 m/s 747 mmHg 77%
    17:00 +13°C° 0 mm 2 m/s 747 mmHg 82%
    18:00 +12°C° 0 mm 2 m/s 747 mmHg 87%
    19:00 +12°C° 0 mm 2 m/s 747 mmHg 88%
    20:00 +10°C° 0 mm 2 m/s 747 mmHg 89%
    21:00 +10°C° 0 mm 3 m/s 747 mmHg 90%
    22:00 +10°C° 0 mm 3 m/s 747 mmHg 91%
    23:00 +10°C° 0 mm 3 m/s 747 mmHg 91%

    20 Octombrie, Duminică

    Timp Temperatura Precipitaţii Vânt Presiune Umiditate
    00:00 +9°C° 0 mm 3 m/s 747 mmHg 92%
    01:00 +9°C° 0 mm 3 m/s 747 mmHg 92%
    02:00 +9°C° 0 mm 3 m/s 747 mmHg 93%
    03:00 +9°C° 0 mm 3 m/s 747 mmHg 93%
    04:00 +9°C° 0 mm 3 m/s 747 mmHg 93%
    05:00 +8°C° 0 mm 3 m/s 747 mmHg 93%
    06:00 +8°C° 0 mm 3 m/s 747 mmHg 93%
    07:00 +9°C° 0 mm 3 m/s 747 mmHg 90%
    08:00 +9°C° 0 mm 3 m/s 747 mmHg 87%
    09:00 +10°C° 0 mm 3 m/s 747 mmHg 84%
    10:00 +11°C° 0 mm 3 m/s 747 mmHg 80%
    11:00 +12°C° 0 mm 3 m/s 747 mmHg 77%
    12:00 +13°C° 0 mm 3 m/s 747 mmHg 73%
    13:00 +14°C° 0 mm 4 m/s 747 mmHg 72%
    14:00 +14°C° 0 mm 4 m/s 747 mmHg 72%
    15:00 +15°C° 0 mm 4 m/s 747 mmHg 71%
    16:00 +14°C° 0 mm 4 m/s 747 mmHg 75%
    17:00 +13°C° 0 mm 4 m/s 747 mmHg 79%
    18:00 +12°C° 0 mm 3 m/s 747 mmHg 82%
    19:00 +12°C° 0 mm 4 m/s 747 mmHg 83%
    20:00 +12°C° 0 mm 4 m/s 747 mmHg 83%
    21:00 +12°C° 0 mm 4 m/s 747 mmHg 83%
    22:00 +11°C° 0 mm 4 m/s 747 mmHg 84%
    23:00 +11°C° 0 mm 4 m/s 747 mmHg 84%

    21 Octombrie, Luni

    Timp Temperatura Precipitaţii Vânt Presiune Umiditate
    00:00 +11°C° 0 mm 4 m/s 747 mmHg 85%
    01:00 +11°C° 0 mm 4 m/s 747 mmHg 85%
    02:00 +10°C° 0 mm 4 m/s 747 mmHg 86%
    03:00 +10°C° 0 mm 4 m/s 746 mmHg 87%
    04:00 +10°C° 0 mm 4 m/s 746 mmHg 87%
    05:00 +10°C° 0 mm 4 m/s 746 mmHg 88%
    06:00 +8°C° 0 mm 4 m/s 746 mmHg 88%
    07:00 +10°C° 0 mm 4 m/s 746 mmHg 85%
    08:00 +11°C° 0 mm 4 m/s 746 mmHg 81%
    09:00 +10°C° 0 mm 5 m/s 746 mmHg 78%
    10:00 +12°C° 0 mm 5 m/s 746 mmHg 73%
    11:00 +13°C° 0 mm 5 m/s 746 mmHg 69%
    12:00 +15°C° 0 mm 5 m/s 746 mmHg 64%
    13:00 +15°C° 0 mm 6 m/s 746 mmHg 63%
    14:00 +16°C° 0 mm 6 m/s 745 mmHg 61%
    15:00 +16°C° 0 mm 6 m/s 745 mmHg 60%
    16:00 +15°C° 0 mm 5 m/s 745 mmHg 64%
    17:00 +14°C° 0 mm 5 m/s 745 mmHg 67%
    18:00 +14°C° 0 mm 4 m/s 744 mmHg 70%
    19:00 +13°C° 0 mm 4 m/s 744 mmHg 72%
    20:00 +12°C° 0 mm 4 m/s 744 mmHg 75%
    21:00 +12°C° 0 mm 4 m/s 744 mmHg 77%
    22:00 +12°C° 0 mm 4 m/s 744 mmHg 79%
    23:00 +11°C° 0 mm 4 m/s 744 mmHg 80%

    22 Octombrie, Marţi

    Timp Temperatura Precipitaţii Vânt Presiune Umiditate
    00:00 +11°C° 0 mm 4 m/s 744 mmHg 82%
    01:00 +11°C° 0 mm 4 m/s 744 mmHg 83%
    02:00 +10°C° 0 mm 4 m/s 743 mmHg 84%
    03:00 +10°C° 0 mm 4 m/s 743 mmHg 85%
    04:00 +10°C° 0 mm 4 m/s 743 mmHg 84%
    05:00 +10°C° 0 mm 4 m/s 743 mmHg 84%
    06:00 +9°C° 0 mm 5 m/s 742 mmHg 84%
    07:00 +9°C° 0 mm 5 m/s 742 mmHg 82%
    08:00 +10°C° 0 mm 5 m/s 742 mmHg 80%
    09:00 +10°C° 0 mm 6 m/s 741 mmHg 78%
    10:00 +11°C° 0 mm 6 m/s 741 mmHg 74%
    11:00 +13°C° 0 mm 6 m/s 741 mmHg 71%
    12:00 +14°C° 0 mm 6 m/s 740 mmHg 68%
    13:00 +14°C° 0 mm 6 m/s 740 mmHg 67%
    14:00 +14°C° 0 mm 5 m/s 740 mmHg 67%
    15:00 +15°C° 0 mm 5 m/s 739 mmHg 66%
    16:00 +14°C° 0 mm 5 m/s 739 mmHg 70%
    17:00 +13°C° 0 mm 4 m/s 739 mmHg 74%
    18:00 +13°C° 0 mm 4 m/s 738 mmHg 78%
    19:00 +12°C° 0 mm 4 m/s 738 mmHg 81%
    20:00 +12°C° 0 mm 4 m/s 738 mmHg 83%
    21:00 +12°C° 0 mm 4 m/s 738 mmHg 86%
    22:00 +12°C° 0.2 mm 4 m/s 739 mmHg 88%
    23:00 +11°C° 0.2 mm 4 m/s 739 mmHg 91%
    Arată mai mult